FiledPublishedGrantedTechnology Transfer

Sr. No. Year Patent Id Patent Title Date Status
12016 289206Automatic Blood Group Device09/12/2016 Granted
22016 289207Automatic Blood Group Identification Device 09/12/2016 Granted
32016 283869 Portable Cycle with Foldable Wheels30/05/2016 Granted
42017 294059 Chainless Cum Foldable Bicycle23/05/2017 Granted
52017 296127 Vibration Isolator for Vibration26/07/2017 Granted
62017 296895Camcorder Moving Apparatus For Indoor Industrial Safety23/08/2017 Granted
72017 296896Industrial radiographic film holder with image processing apparatus23/08/2017 Granted
82017 294062 Sliding Upper Wishbone for Camber Angle Adjuster23/05/2017 Granted
92017 294063 Vertical Axis Wind Turbine Using Gorlov and Savonius Blades for Water Pumping System23/05/2017 Granted
102017 299479 Solar Desalination Apparatus with Air Heater Attachment16/11/2017 Granted
112018 304763Sea Weed Grinding Machine13/04/2018 Granted
122018 304750 Tube Muffler for Light Motor Vehicle13/04/2018 Granted
132018 304850 Extension Power Cord18/04/2018 Granted
142018 303347 Two Wheeler Handle bar with Route Finder Attachment08/03/2018 Granted
152019 313577-001Seaweed Crushing Machine02/01/2019 Granted
162019313578-001Semi Automatic Blood Group Identification Device 02/01/2019 Granted
172019 316200-001 Base Plate for Unmanned Aerial Vehicle29/03/2019 Granted
182019 316668-001Portable protractible shelter11/04/2019 Granted
192019 316669-002 High pressure cleaning device for solar panels 11/04/2019 Granted
202019 316670-001 Blood slides sterilization equipment 11/04/2019 Granted
212019 316670-002 Slide washing equipment 11/04/2019 Granted
222019 316671-001 Tunnel inspection device with camera 11/04/2019 Granted
232019 316672-001 Lighting Device for Tunnel Construction Works 11/04/2019 Granted
242019 316673-001Robot for Multi Identifying Spilled Hazardous Material on Floor11/04/2019 Granted
252019 316673-002Robot for Identifying Spilled Hazardous Material on Floor11/04/2019 Granted
262019 316962-001Device with Assisted Attendance Marking for Handicapped18/04/2019 Granted
272019 316963-001Agriculture Drone with Pesticide Sprayer18/04/2019 Granted
282019 316967-001 Helmet with Electronic Lock 18/04/2019 Granted
292019 316968-001 Inspection Panel for Examining Metal Properties 18/04/2019 Granted
302019 316969-001Height Adjustable Hydraulic lifting Ambulance stretcher bed18/04/2019 Granted
312019 316970-001 Transparent Candle Flame Protective Cover 18/04/2019 Granted
322019 316972-001 Portable Hydraulic lifting work platform18/04/2019 Granted
332019 316973-001Foot Dryer for Washroom Doorways18/04/2019 Granted
342019 316976-001 Temperature Sensing Device for Bio-fuels 18/04/2019 Granted
352019 316976-002 Food Testing Apparatus with Carbon Free Exhaust 18/04/2019 Granted
362019 316977-001 Fish Waste Cleaning Equipment 18/04/2019 Granted
372019 316977-002 Glassware Cleaning Apparatus for Laboratories 18/04/2019 Granted
382019 316978-001 Telescopic UV Insect Trap 18/04/2019 Granted
392019 316980-001 Laboratory reagent holder 18/04/2019 Granted
402019 316984-001Smart Gloves18/04/2019 Granted
412019 316985-001 Retractable Candle Holder 18/04/2019 Granted
422019 316986-001 Stretcher Bed Level Equalizer for Ambulance 18/04/2019 Granted
432019 316987-001 Agriculture Drone with Sprayer 18/04/2019 Granted
442019 317783-001Hand cutting Machine Multi cutter16/05/2019 Granted
452019 317784-001Biodegradable Bacterial Float for Culture in Sewage16/05/2019 Granted
462019 317785-001Hand Gloves with Thermometer & Digital Display16/05/2019 Granted
472019 317786-001Automatic Image Sensing Visor for vehicle16/05/2019 Granted
482019 317787-001 UV Light Examination Apparatus for Inspection Metals 16/05/2019 Granted
492019 317787-002 UV Panel Light Projection with Digital Microscope Camera 16/05/2019 Granted
502019 317788-001 LID with Sensor 16/05/2019 Granted
512019 317206-001Multipurpose Agricultural Robot26/04/2019 Granted
522019 320184-001 Coffee Cup Instant Warmer 30/07/2019 Granted
532019 320186-001 Automatic Fish Feeder 30/07/2019 Granted
542019 320185-001 Water quality maintaining equipment for fish tank 30/07/2019 Granted
552019 320184-002 Coffee Cup Instant Warmer with Blender 30/07/2019 Granted
562019 320184 -003 Non metal coffee cup warmer 30/07/2019 Granted
572019 320199-001 Agility Disc With LED 30/07/2019 Granted
582019 320198-001 Electric Powered Peanut Shredder 30/07/2019 Granted
592019 320198-002 Solar peanut shredding machine 30/07/2019 Granted
602019 320195-001 Electric hot knife 30/07/2019 Granted
612019 320197-002 Portable car parking vacant slot indicating display 30/07/2019 Granted
622019 320196-001 Anti-Theft Lock for Motorcycles 30/07/2019 Granted
632019 320197-003 Car Parking Vacant Slot Indicating Alarm 30/07/2019 Granted
642019 320194-001 Jumping Dummy Doll Basketball Training30/07/2019 Granted
652019 320199-002 Agility Cone with LED 30/07/2019 Granted
662019 320191-001 Lifting device for LPG cylinders30/07/2019 Granted
672019 320190-001Multi knife vegetable cutter30/07/2019 Granted
682019 320191-002Portable with LPG Cylinder Escalating Device30/07/2019 Granted
69201 320192-001Dispensable Writing Pad30/07/2019 Granted
702019 320193-001Portable Basketball Training Equipment30/07/2019 Granted
712019 320193-002Portable Basketball Training Equipment with Ball Collector30/07/2019 Granted
722019 320202-001Multi Stage Portable Brick Elevating Conveyor30/07/2019 Granted
732019 320202-002Portable Brick Elevating Conveyor30/07/2019 Granted
742019 320201-001Digital water level indicator for tanks30/07/2019 Granted
752019 320091-001 Multi Solar Aerator for Prawn Culture2019 Granted
762019 320092-001 Solar Aerator for Prawn Culture2019 Granted
772020 334632-001 Concrete Ring Segment for Coastal Erosion2020 Granted
782020 334501-001 Portable Foot Operable Sanitizer Dispenser2020 Granted
792020 330019-001 Digitized Vitals Congregating Hand Gloves2020 Granted
802021 338370-001 Bentonite Slurry Volume Mixing Device01/02/2021 Granted
812021 338373-002 Pavement Block Cutting Machine01/02/2021 Granted
822021 338371-001 Bentonite Slurry Volume Measuring Device01/02/2021 Granted
832021 338375-002 UV Wall Sterilizing Robot01/02/2021 Granted
842021 338375-003 UV Clothing Disinfecting Cabinet01/02/2021 Granted
852021 338374-002 Bentonite Slurry Storage Tank with Solar LED Lights01/02/2021 Granted
862021 338373-001 Pavement Block Cutting Machine With Image Sensor01/02/2021 Granted
872021 338376-001 Tooth Brush Holder with UV Sterilizer01/02/2021 Granted